NULL Weather Reports


Display with metric or nautical units.
time (UTC)temp
F
wind
direction
speed
MPH
gust
MPH
rain 1hr
in
rain 24hr
in
rain mn
in
humidity
%
barometer
mb
20260505010011 76 206 2.0 4.0 0.00 0.00 0.00 49 1001.5
20260505010001 65 163 0.0 0.0 0.00 0.00 0.00 65 1014.0
20260505004513 77 359 2.0 5.0 0.00 0.00 0.00 46 1001.4
20260505004504 65 164 0.0 0.0 0.00 0.00 0.00 64 1014.0
20260505003101 65 289 0.0 0.0 0.00 0.00 0.00 62 1014.0
20260505003009 78 182 1.0 5.0 0.00 0.00 0.00 45 1001.2
20260505001605 66 174 0.0 1.0 0.00 0.00 0.00 61 1014.2
20260505001510 79 201 3.0 9.0 0.00 0.00 0.00 44 1001.2
20260505000013 79 224 3.0 8.0 0.00 0.00 0.00 44 1001.3
20260504234559 67 179 0.0 1.0 0.00 0.00 0.00 59 1014.0
20260504234508 80 202 1.0 8.0 0.00 0.00 0.00 46 1001.2
20260504233108 67 123 0.0 1.0 0.00 0.00 0.00 59 1013.9
20260504233007 80 228 2.0 8.0 0.00 0.00 0.00 44 1001.3
20260504231603 67 153 0.0 1.0 0.00 0.00 0.00 60 1013.9
20260504231506 80 166 4.0 12.0 0.00 0.00 0.00 42 1001.3
20260504230058 67 130 0.0 1.0 0.00 0.00 0.00 61 1013.9
20260504230014 81 208 6.0 15.0 0.00 0.00 0.00 41 1001.3
20260504224555 67 165 0.0 3.0 0.00 0.00 0.00 62 1014.2
20260504224505 81 195 6.0 12.0 0.00 0.00 0.00 41 1001.2
20260504223055 67 160 0.0 1.0 0.00 0.00 0.00 63 1014.3
20260504223004 82 264 5.0 13.0 0.00 0.00 0.00 39 1001.2
20260504221553 67 130 0.0 0.0 0.00 0.00 0.00 63 1014.4
20260504221504 82 224 6.0 13.0 0.00 0.00 0.00 36 1001.2
20260504220052 67 134 0.0 1.0 0.00 0.00 0.00 60 1014.5
20260504220002 82 231 8.0 18.0 0.00 0.00 0.00 37 1001.2
20260504214555 66 156 0.0 1.0 0.00 0.00 0.00 65 1014.5
20260504214501 82 221 7.0 16.0 0.00 0.00 0.00 38 1001.4
20260504213141 82 242 7.0 14.0 0.00 0.00 0.00 38 1001.5
20260504213051 66 171 0.0 0.0 0.00 0.00 0.00 69 1014.8
20260504211606 82 253 8.0 16.0 0.00 0.00 0.00 37 1001.6
20260504211550 67 137 0.0 1.0 0.00 0.00 0.00 66 1015.0
20260504210104 67 172 0.0 1.0 0.00 0.00 0.00 64 1015.0
20260504210057 82 226 7.0 17.0 0.00 0.00 0.00 37 1001.6
20260504204557 82 206 6.0 18.0 0.00 0.00 0.00 37 1001.7
20260504203117 82 162 6.0 16.0 0.00 0.00 0.00 38 1001.9
20260504203103 67 156 0.0 0.0 0.00 0.00 0.00 63 1015.0
20260504201551 82 182 5.0 16.0 0.00 0.00 0.00 39 1002.2
20260504201548 67 160 0.0 0.0 0.00 0.00 0.00 63 1015.0
20260504200051 82 120 5.0 15.0 0.00 0.00 0.00 40 1002.4
20260504200047 68 207 0.0 2.0 0.00 0.00 0.00 63 1015.1
20260504194559 81 209 6.0 15.0 0.00 0.00 0.00 41 1002.5
20260504194545 67 146 0.0 0.0 0.00 0.00 0.00 64 1015.2
20260504193056 80 229 7.0 12.0 0.00 0.00 0.00 40 1002.6
20260504193041 66 155 0.0 1.0 0.00 0.00 0.00 64 1015.4
20260504191544 80 222 7.0 15.0 0.00 0.00 0.00 43 1002.4
20260504191542 66 215 0.0 0.0 0.00 0.00 0.00 64 1015.3
20260504190100 66 155 0.0 0.0 0.00 0.00 0.00 64 1015.4
20260504190042 80 202 7.0 12.0 0.00 0.00 0.00 43 1002.5
20260504184541 79 225 9.0 17.0 0.00 0.00 0.00 43 1002.6
20260504184539 66 227 0.0 0.0 0.00 0.00 0.00 65 1015.4
20260504183039 79 182 7.0 13.0 0.00 0.00 0.00 43 1002.7
20260504181541 65 136 0.0 0.0 0.00 0.00 0.00 63 1015.4
20260504181535 78 214 5.0 16.0 0.00 0.00 0.00 43 1002.7
20260504180039 66 160 0.0 0.0 0.00 0.00 0.00 62 1015.4
20260504180033 78 162 7.0 16.0 0.00 0.00 0.00 44 1002.8
20260504174537 66 178 0.0 0.0 0.00 0.00 0.00 60 1015.4
20260504174531 77 196 8.0 17.0 0.00 0.00 0.00 45 1002.8
20260504173036 77 196 8.0 15.0 0.00 0.00 0.00 46 1002.8
20260504171532 64 166 0.0 0.0 0.00 0.00 0.00 66 1015.2
20260504171526 76 171 5.0 13.0 0.00 0.00 0.00 47 1003.0
20260504140108 66 189 6.0 17.0 0.00 0.00 0.00 59 1003.9
20260504081545 60 169 0.0 0.0 0.00 0.00 0.00 75 1015.1
20260504081521 59 222 0.0 0.0 0.00 0.00 0.00 74 1005.7
20260504044555 68 174 5.0 10.0 0.00 0.00 0.00 51 1007.2
20260504044526 61 155 0.0 0.0 0.00 0.00 0.00 75 1014.5
20260504043041 67 106 3.0 6.0 0.00 0.00 0.00 55 1008.1
20260504043026 61 155 0.0 0.0 0.00 0.00 0.00 75 1014.4
20260504041538 67 354 2.0 9.0 0.00 0.00 0.00 58 1008.9
20260504041526 62 155 0.0 0.0 0.00 0.00 0.00 75 1014.2
20260504040038 65 324 6.0 11.0 0.00 0.00 0.00 65 1008.8
20260504040025 62 154 0.0 0.0 0.00 0.00 0.00 76 1013.9
20260504034545 64 187 1.0 3.0 0.00 0.00 0.00 69 1008.3
20260504034524 62 153 0.0 0.0 0.00 0.00 0.00 76 1013.9
20260504033050 64 239 0.0 2.0 0.00 0.00 0.00 68 1008.6
20260504033024 62 150 0.0 0.0 0.00 0.00 0.00 76 1013.7
20260504031537 64 239 1.0 2.0 0.00 0.00 0.00 70 1008.4
20260504031524 62 132 0.0 0.0 0.00 0.00 0.00 74 1013.5
20260504030036 64 326 0.0 2.0 0.00 0.00 0.00 67 1008.9
20260504030023 62 194 0.0 0.0 0.00 0.00 0.00 72 1013.3
20260504024535 64 326 1.0 2.0 0.00 0.00 0.00 69 1008.4
20260504024523 62 165 0.0 0.0 0.00 0.00 0.00 71 1013.2
20260504023036 65 220 0.0 3.0 0.00 0.00 0.00 68 1008.4
20260504023023 62 150 0.0 0.0 0.00 0.00 0.00 71 1013.2
20260504021536 65 157 0.0 2.0 0.00 0.00 0.00 66 1008.2
20260504021522 63 152 0.0 0.0 0.00 0.00 0.00 69 1013.1
20260504020035 66 25 0.0 0.0 0.00 0.00 0.00 64 1008.1
20260504020028 64 159 0.0 0.0 0.00 0.00 0.00 67 1012.8
20260504014538 64 180 0.0 1.0 0.00 0.00 0.00 67 1012.6
20260504014536 67 25 0.0 0.0 0.00 0.00 0.00 62 1008.1
20260504013037 68 25 0.0 0.0 0.00 0.00 0.00 59 1008.1
20260504013020 65 155 0.0 0.0 0.00 0.00 0.00 64 1012.3
20260504011533 70 26 0.0 0.0 0.00 0.00 0.00 60 1008.0
20260504011520 65 169 0.0 0.0 0.00 0.00 0.00 64 1012.2